Regional Weather Roundup
Issued by NWS Green Bay, WI

Home | Current Version | Previous Version | Graphics & Text | Print | Product List | Glossary Off
Versions: 1 2 3 4 5 6 7 8 9 10 11 12 13 14 15 16 17 18 19 20 21 22 23 24 25 26 27 28 29 30 31 32 33 34 35 36 37 38 39 40 41 42 43 44 45 46 47 48 49 50

000
ASUS43 KGRB 041611
RWRGRB

NORTH-CENTRAL AND NORTHEAST WISCONSIN REGIONAL WEATHER ROUNDUP
NATIONAL WEATHER SERVICE GREEN BAY WI
1100 AM CDT TUE AUG 04 2015

WIZ005-009-010>012-018-019-041700-
NORTH CENTRAL WISCONSIN

CITY           SKY/WX    TMP DP  RH WIND       PRES   REMARKS
IRONWOOD       CLOUDY    63  54  72 NW8       29.95R
MANITOWISH WTR PTSUNNY   63  51  65 NW8       29.98S
ARBOR VITAE    PTSUNNY   64  52  64 W10       29.98R
EAGLE RIVER    CLOUDY    64  50  59 NW12      29.97R
LAND O LAKES   NOT AVBL
RHINELANDER    PTSUNNY   67  51  56 NW8       29.98S
PHILLIPS       PTSUNNY   66  53  62 NW9G16    29.99S
ANTIGO         PTSUNNY   68  50  52 NW13G23   29.97S
TOMAHAWK       PTSUNNY   66  51  58 W12       29.99S
MERRILL        NOT AVBL
$$

WIZ013-073-041700-
NORTHEAST WISCONSIN

CITY           SKY/WX    TMP DP  RH WIND       PRES   REMARKS
IRON MOUNTAIN  PTSUNNY   65  57  75 W9        29.93R
MARINETTE      PTSUNNY   66  54  63 NW6       29.92S
OCONTO         MOSUNNY   70  56  60 NW5       29.93S
$$

WIZ017-030-035>037-045-041700-
CENTRAL WISCONSIN

CITY           SKY/WX    TMP DP  RH WIND       PRES   REMARKS
MEDFORD        MOSUNNY   69  52  54 NW17G23   29.99F
WAUSAU         MOSUNNY   71  49  45 NW18G26   29.96F
MOSINEE        MOSUNNY   70  54  56 NW13G18   29.99S
MARSHFIELD     MOSUNNY   72  51  47 NW15      29.99S
WISC RAPIDS    MOSUNNY   73  48  41 NW12G22   30.00R
STEVENS POINT  SUNNY     69  50  50 NW14      29.98S
WAUPACA        MOSUNNY   74  50  43 NW14      29.97R
SHAWANO        MOSUNNY   73  54  50 NW12G17   29.95S
CLINTONVILLE   SUNNY     72  46  40 NW15G21   29.95S
$$

WIZ038-039-048-051-041700-
FOX VALLEY

CITY           SKY/WX    TMP DP  RH WIND       PRES   REMARKS
NWS GREEN BAY  MOSUNNY   71  56  58 NW13      29.94F
APPLETON       PTSUNNY   70  50  49 NW10G18   29.96S
OSHKOSH        MOSUNNY   72  54  53 NW12G20   29.96R
FOND DU LAC    MOSUNNY   72  56  57 NW14G21   29.97R
$$

WIZ022-050-052-041700-
EAST CENTRAL WISCONSIN

CITY           SKY/WX    TMP DP  RH WIND       PRES   REMARKS
STURGEON BAY   PTSUNNY   66  55  68 NW7       29.96S
MANITOWOC      PTSUNNY   72  56  57 MISG      29.94S
SHEBOYGAN      MOSUNNY   73  57  57 W9        29.95R
$$

LMZ563-521-522-541>543-041700-
LAKESHORE

STATION/POSITION TIME  TEMP    WIND        PRES    VSBY  WAVE
                       AIR SEA DIR/SP/G                  HT/PER
                 (UTC) (F)     (DEG/KT/KT) (MB)    (MI)  (FT/S)
SHEBOYGAN LKSHOR 1600   65      90/  5/  5 1014.3R
KEWAUNEE LKSHORE 1500   68     310/  5/  9 1013.1R
ALGOMA MARINA    1527          330/  9/ 12   N/A
NORTHPORT PIER   1500   64     320/  3/  5 1013.2R
N MID LAKE BUOY  1550   62 68  320/  2/  4 1013.1R         1/ 3
S GREEN BAY BUOY 1500   65 71  260/  6/  6 1015.1R
SISTER BAY LKSHO 1518   69      10/  6/  7   N/A
CHAMBERS ISLAND  1500   67     360/  2/  3 1013.5R
MENOMINEE LKSHOR 1500   64     100/  4/  5 1014.2R
$$



USA.gov is the U.S. government's official web portal to all federal, state and local government web resources and services.